SBI5225 UNNT-UIII

Flight info

Callsign SBI5225
Flight time 1h 59m
Altitude 35000
Route OGATI A308 RISPA A822 LAPAK B151 RO A817 SUKOR A91 CS G490 NH
Aircraft B738/M-SDE2E3FGHIRWXY/LB1

Departure

Time 2026-05-05 08:56
Airport Novosibirsk Tolmachevo Airport (UNNT)

Arrival

Time 2026-05-05 10:55
Airport Irkutsk International Airport (UIII)
Time Latitude Longitude Altitude Speed Heading
2026-05-05 07:59 55.00952 82.66403 372 ft 0 kts 171°
2026-05-05 08:45 55.00971 82.66398 372 ft 4 kts 174°
2026-05-05 08:45 55.00998 82.66395 372 ft 4 kts 178°
2026-05-05 08:45 55.01025 82.66395 372 ft 4 kts 181°
2026-05-05 08:45 55.01052 82.66397 372 ft 4 kts 182°
2026-05-05 08:46 55.01079 82.66397 372 ft 4 kts 173°
2026-05-05 08:46 55.01088 82.66395 372 ft 0 kts 167°
2026-05-05 08:52 55.01072 82.66401 372 ft 4 kts 167°
2026-05-05 08:52 55.01042 82.66421 372 ft 5 kts 135°
2026-05-05 08:53 55.01044 82.66480 372 ft 6 kts 70°
2026-05-05 08:53 55.01065 82.66572 372 ft 10 kts 66°
2026-05-05 08:53 55.01107 82.66661 372 ft 10 kts
2026-05-05 08:53 55.01175 82.66644 372 ft 10 kts 351°
2026-05-05 08:54 55.01241 82.66626 372 ft 9 kts 351°
2026-05-05 08:54 55.01305 82.66610 372 ft 9 kts 352°
2026-05-05 08:54 55.01367 82.66590 373 ft 9 kts 335°
2026-05-05 08:54 55.01375 82.66499 374 ft 4 kts 261°
2026-05-05 08:55 55.01375 82.66495 374 ft 4 kts 261°
2026-05-05 08:55 55.01333 82.66046 372 ft 74 kts 261°
2026-05-05 08:55 55.01217 82.64759 372 ft 138 kts 261°
2026-05-05 08:56 55.01015 82.62808 476 ft 182 kts 258°
2026-05-05 08:56 55.00808 82.60621 1318 ft 178 kts 259°
2026-05-05 08:56 55.00426 82.58712 2359 ft 165 kts 230°
2026-05-05 08:56 54.99416 82.57585 2740 ft 189 kts 193°
2026-05-05 08:57 54.98032 82.57901 2935 ft 220 kts 155°
2026-05-05 08:57 54.96962 82.59951 3236 ft 245 kts 115°
2026-05-05 08:57 54.96663 82.62929 3816 ft 254 kts 97°
2026-05-05 08:57 54.96559 82.66083 4244 ft 271 kts 95°
2026-05-05 08:58 54.96465 82.69403 4903 ft 278 kts 95°
2026-05-05 08:58 54.96362 82.72751 5678 ft 281 kts 95°
2026-05-05 08:58 54.96244 82.76165 6441 ft 284 kts 95°
2026-05-05 08:58 54.96111 82.79630 7183 ft 288 kts 95°
2026-05-05 08:59 54.95979 82.83132 7899 ft 293 kts 92°
2026-05-05 08:59 54.96150 82.86689 8622 ft 297 kts 82°
2026-05-05 08:59 54.96518 82.90253 9364 ft 300 kts 79°
2026-05-05 08:59 54.96934 82.93845 10035 ft 305 kts 79°
2026-05-05 09:00 54.97364 82.97546 10404 ft 323 kts 79°
2026-05-05 09:00 54.97814 83.01519 10584 ft 345 kts 79°
2026-05-05 09:00 54.98274 83.05724 10757 ft 366 kts 79°
2026-05-05 09:00 54.98748 83.10179 11088 ft 380 kts 79°
2026-05-05 09:01 54.99226 83.14747 11649 ft 386 kts 79°
2026-05-05 09:01 54.99701 83.19369 12303 ft 389 kts 79°
2026-05-05 09:01 55.00176 83.24031 12957 ft 393 kts 79°
2026-05-05 09:01 55.00651 83.28752 13605 ft 397 kts 79°
2026-05-05 09:02 55.01126 83.33510 14271 ft 401 kts 79°
2026-05-05 09:02 55.01597 83.38256 14893 ft 404 kts 79°
2026-05-05 09:02 55.02076 83.43108 15565 ft 408 kts 79°
2026-05-05 09:02 55.02557 83.47997 16201 ft 411 kts 79°
2026-05-05 09:03 55.03040 83.52943 16807 ft 416 kts 79°
2026-05-05 09:03 55.03525 83.57928 17413 ft 419 kts 78°
2026-05-05 09:03 55.04011 83.62952 18021 ft 422 kts 78°
2026-05-05 09:03 55.04500 83.68013 18609 ft 425 kts 78°
2026-05-05 09:04 55.04993 83.73129 19147 ft 429 kts 78°
2026-05-05 09:04 55.05487 83.78290 19677 ft 432 kts 78°
2026-05-05 09:04 55.05984 83.83502 20170 ft 437 kts 78°
2026-05-05 09:04 55.06481 83.88742 20691 ft 440 kts 78°
2026-05-05 09:05 55.06979 83.94023 21198 ft 442 kts 78°
2026-05-05 09:05 55.07479 83.99336 21653 ft 446 kts 78°
2026-05-05 09:05 55.07953 84.04405 22071 ft 449 kts 77°
2026-05-05 09:05 55.08454 84.09789 22570 ft 451 kts 77°
2026-05-05 09:06 55.08956 84.15218 23028 ft 454 kts 77°
2026-05-05 09:06 55.09460 84.20681 23427 ft 457 kts 77°
2026-05-05 09:06 55.09964 84.26184 23818 ft 461 kts 77°
2026-05-05 09:06 55.10469 84.31727 24219 ft 463 kts 77°
2026-05-05 09:07 55.10975 84.37291 24610 ft 465 kts 77°
2026-05-05 09:07 55.11476 84.42825 24978 ft 469 kts 77°
2026-05-05 09:07 55.11981 84.48467 25365 ft 470 kts 77°
2026-05-05 09:07 55.12484 84.54120 25724 ft 473 kts 77°
2026-05-05 09:08 55.12988 84.59812 26052 ft 475 kts 77°
2026-05-05 09:08 55.13491 84.65531 26405 ft 478 kts 77°
2026-05-05 09:08 55.13997 84.71292 26792 ft 479 kts 77°
2026-05-05 09:08 55.14501 84.77063 27127 ft 481 kts 77°
2026-05-05 09:09 55.15004 84.82858 27425 ft 483 kts 77°
2026-05-05 09:09 55.15506 84.88680 27750 ft 485 kts 76°
2026-05-05 09:09 55.16006 84.94523 28072 ft 487 kts 76°
2026-05-05 09:09 55.16489 85.00196 28355 ft 488 kts 76°
2026-05-05 09:10 55.16979 85.05962 28651 ft 490 kts 76°
2026-05-05 09:10 55.17477 85.11873 28923 ft 491 kts 76°
2026-05-05 09:10 55.17972 85.17786 29203 ft 492 kts 76°
2026-05-05 09:10 55.18465 85.23718 29585 ft 491 kts 76°
2026-05-05 09:11 55.18951 85.29619 29978 ft 489 kts 76°
2026-05-05 09:11 55.19433 85.35504 30349 ft 488 kts 76°
2026-05-05 09:11 55.19913 85.41376 30693 ft 487 kts 76°
2026-05-05 09:11 55.20389 85.47234 31031 ft 486 kts 76°
2026-05-05 09:12 55.20862 85.53095 31352 ft 485 kts 76°
2026-05-05 09:12 55.21332 85.58957 31700 ft 485 kts 76°
2026-05-05 09:12 55.21793 85.64713 32052 ft 483 kts 76°
2026-05-05 09:12 55.22256 85.70531 32381 ft 482 kts 76°
2026-05-05 09:13 55.22714 85.76342 32677 ft 482 kts 76°
2026-05-05 09:13 55.22911 85.78856 32808 ft 481 kts 76°
2026-05-05 09:14 55.23174 85.82218 32977 ft 481 kts 77°
2026-05-05 09:14 55.23625 85.88025 33277 ft 480 kts 77°
2026-05-05 09:14 55.24072 85.93812 33576 ft 479 kts 77°
2026-05-05 09:15 55.24514 85.99596 33842 ft 479 kts 77°
2026-05-05 09:15 55.24931 86.05056 34074 ft 479 kts 77°
2026-05-05 09:15 55.25370 86.10840 34392 ft 478 kts 77°
2026-05-05 09:15 55.25806 86.16609 34649 ft 477 kts 77°
2026-05-05 09:16 55.26239 86.22379 34794 ft 479 kts 78°
2026-05-05 09:16 55.26672 86.28179 34974 ft 480 kts 78°
2026-05-05 09:16 55.27098 86.33931 35071 ft 482 kts 78°
2026-05-05 09:17 55.27954 86.45621 35077 ft 483 kts 78°
2026-05-05 09:17 55.28791 86.57271 35063 ft 478 kts 78°
2026-05-05 09:18 55.29611 86.68826 35075 ft 475 kts 78°
2026-05-05 09:18 55.30419 86.80312 35078 ft 474 kts 78°
2026-05-05 09:19 55.31212 86.91785 35079 ft 474 kts 78°
2026-05-05 09:19 55.31978 87.02977 35091 ft 475 kts 78°
2026-05-05 09:20 55.32754 87.14437 35087 ft 476 kts 78°
2026-05-05 09:20 55.33522 87.26005 35086 ft 477 kts 79°
2026-05-05 09:21 55.34280 87.37606 35078 ft 479 kts 79°
2026-05-05 09:21 55.35031 87.49263 35076 ft 481 kts 79°
2026-05-05 09:22 55.35770 87.60960 35069 ft 482 kts 79°
2026-05-05 09:22 55.36383 87.70727 35064 ft 484 kts 79°
2026-05-05 09:23 55.37110 87.82485 35066 ft 484 kts 79°
2026-05-05 09:23 55.37825 87.94265 35061 ft 484 kts 79°
2026-05-05 09:24 55.38507 88.05692 35060 ft 483 kts 79°
2026-05-05 09:24 55.39197 88.17428 35065 ft 482 kts 79°
2026-05-05 09:25 55.39871 88.29133 35063 ft 480 kts 79°
2026-05-05 09:25 55.40534 88.40808 35060 ft 479 kts 79°
2026-05-05 09:26 55.41188 88.52485 35064 ft 478 kts 79°
2026-05-05 09:26 55.41828 88.64141 35065 ft 478 kts 79°
2026-05-05 09:27 55.42456 88.75795 35075 ft 478 kts 79°
2026-05-05 09:27 55.43078 88.87481 35064 ft 482 kts 79°
2026-05-05 09:28 55.43673 88.99315 35077 ft 494 kts 79°
2026-05-05 09:28 55.44214 89.11150 35084 ft 502 kts 80°
2026-05-05 09:29 55.44759 89.23444 35072 ft 503 kts 80°
2026-05-05 09:29 55.45297 89.35759 35075 ft 504 kts 80°
2026-05-05 09:30 55.45827 89.48061 35078 ft 503 kts 80°
2026-05-05 09:30 55.46343 89.60263 35070 ft 502 kts 80°
2026-05-05 09:31 55.46848 89.72514 35089 ft 500 kts 80°
2026-05-05 09:31 55.47341 89.84744 35076 ft 499 kts 80°
2026-05-05 09:32 55.47821 89.96974 35070 ft 499 kts 80°
2026-05-05 09:32 55.48275 90.08882 35077 ft 498 kts 80°
2026-05-05 09:33 55.48730 90.21080 35077 ft 497 kts 81°
2026-05-05 09:33 55.49171 90.33243 35084 ft 497 kts 81°
2026-05-05 09:34 55.49596 90.45317 35081 ft 496 kts 81°
2026-05-05 09:34 55.50012 90.57458 35091 ft 496 kts 81°
2026-05-05 09:35 55.50415 90.69620 35085 ft 495 kts 81°
2026-05-05 09:35 55.50999 90.87783 35085 ft 493 kts 81°
2026-05-05 09:36 55.51370 90.99838 35089 ft 492 kts 81°
2026-05-05 09:36 55.51703 91.11494 35086 ft 492 kts 83°
2026-05-05 09:37 55.51265 91.23631 35090 ft 497 kts 91°
2026-05-05 09:37 55.50510 91.35739 35080 ft 496 kts 91°
2026-05-05 09:38 55.49781 91.47843 35078 ft 494 kts 91°
2026-05-05 09:38 55.49099 91.59876 35076 ft 492 kts 90°
2026-05-05 09:39 55.48425 91.71890 35071 ft 491 kts 90°
2026-05-05 09:39 55.47740 91.83865 35074 ft 490 kts 91°
2026-05-05 09:40 55.47045 91.95712 35077 ft 489 kts 91°
2026-05-05 09:40 55.46357 92.07289 35087 ft 488 kts 91°
2026-05-05 09:41 55.45638 92.19177 35090 ft 487 kts 91°
2026-05-05 09:41 55.44908 92.31067 35076 ft 487 kts 91°
2026-05-05 09:42 55.44169 92.42933 35091 ft 488 kts 91°
2026-05-05 09:42 55.43415 92.54816 35081 ft 488 kts 91°
2026-05-05 09:43 55.42661 92.66680 35075 ft 487 kts 91°
2026-05-05 09:43 55.41905 92.78452 35089 ft 488 kts 91°
2026-05-05 09:44 55.41129 92.90338 35085 ft 488 kts 91°
2026-05-05 09:44 55.40364 93.01893 35082 ft 490 kts 91°
2026-05-05 09:45 55.39561 93.13821 35088 ft 490 kts 91°
2026-05-05 09:45 55.38748 93.25723 35084 ft 490 kts 91°
2026-05-05 09:46 55.37923 93.37632 35077 ft 490 kts 91°
2026-05-05 09:46 55.37091 93.49449 35084 ft 489 kts 91°
2026-05-05 09:47 55.36246 93.61330 35071 ft 490 kts 91°
2026-05-05 09:47 55.35386 93.73240 35071 ft 491 kts 91°
2026-05-05 09:48 55.34512 93.85168 35061 ft 492 kts 92°
2026-05-05 09:48 55.33626 93.97096 35067 ft 492 kts 92°
2026-05-05 09:49 55.32752 94.08708 35066 ft 493 kts 92°
2026-05-05 09:49 55.31843 94.20626 35060 ft 492 kts 92°
2026-05-05 09:50 55.30931 94.32434 35060 ft 491 kts 92°
2026-05-05 09:50 55.30001 94.44302 35070 ft 490 kts 92°
2026-05-05 09:51 55.29056 94.56208 35060 ft 489 kts 92°
2026-05-05 09:51 55.28115 94.67935 35073 ft 488 kts 92°
2026-05-05 09:52 55.27159 94.79722 35072 ft 487 kts 92°
2026-05-05 09:52 55.26207 94.91474 35077 ft 487 kts 92°
2026-05-05 09:53 55.25391 95.02940 35080 ft 486 kts 91°
2026-05-05 09:53 55.24586 95.14703 35076 ft 486 kts 91°
2026-05-05 09:54 55.23759 95.26469 35076 ft 486 kts 91°
2026-05-05 09:54 55.22908 95.38243 35076 ft 486 kts 91°
2026-05-05 09:55 55.22044 95.49929 35083 ft 487 kts 92°
2026-05-05 09:55 55.21163 95.61678 35078 ft 486 kts 92°
2026-05-05 09:56 55.20275 95.73405 35086 ft 486 kts 92°
2026-05-05 09:56 55.19375 95.85128 35089 ft 486 kts 93°
2026-05-05 09:57 55.18463 95.96833 35081 ft 486 kts 93°
2026-05-05 09:57 55.17567 96.08236 35080 ft 485 kts 94°
2026-05-05 09:58 55.16635 96.19938 35086 ft 485 kts 94°
2026-05-05 09:58 55.15692 96.31607 35097 ft 484 kts 94°
2026-05-05 09:59 55.14745 96.43191 35085 ft 484 kts 94°
2026-05-05 09:59 55.13784 96.54832 35077 ft 483 kts 94°
2026-05-05 10:00 55.12811 96.66451 35098 ft 482 kts 94°
2026-05-05 10:00 55.11830 96.78050 35097 ft 482 kts 94°
2026-05-05 10:01 55.10838 96.89615 35103 ft 481 kts 94°
2026-05-05 10:01 55.09868 97.00857 35101 ft 481 kts 95°
2026-05-05 10:02 55.08855 97.12396 35097 ft 480 kts 95°
2026-05-05 10:02 55.07776 97.23900 35103 ft 480 kts 96°
2026-05-05 10:03 55.06672 97.35314 35102 ft 481 kts 96°
2026-05-05 10:03 55.05555 97.46814 35108 ft 480 kts 96°
2026-05-05 10:04 55.04435 97.58296 35111 ft 480 kts 96°
2026-05-05 10:04 55.03305 97.69793 35112 ft 480 kts 96°
2026-05-05 10:05 55.02162 97.81294 35113 ft 481 kts 96°
2026-05-05 10:05 55.01017 97.92699 35104 ft 481 kts 96°
2026-05-05 10:06 54.99886 98.03865 35113 ft 480 kts 96°
2026-05-05 10:06 54.98713 98.15307 35119 ft 480 kts 97°
2026-05-05 10:07 54.97730 98.24804 35115 ft 480 kts 97°
2026-05-05 10:07 54.96542 98.36216 35120 ft 478 kts 97°
2026-05-05 10:08 54.95347 98.47604 35117 ft 478 kts 97°
2026-05-05 10:08 54.94141 98.58946 35117 ft 477 kts 97°
2026-05-05 10:09 54.92924 98.70295 35124 ft 476 kts 97°
2026-05-05 10:09 54.91713 98.81507 35123 ft 475 kts 98°
2026-05-05 10:10 54.90483 98.92794 35136 ft 474 kts 98°
2026-05-05 10:10 54.89254 99.03728 35125 ft 475 kts 101°
2026-05-05 10:11 54.86832 99.14453 35144 ft 479 kts 114°
2026-05-05 10:11 54.83805 99.24788 35129 ft 480 kts 115°
2026-05-05 10:12 54.80780 99.35095 35126 ft 480 kts 115°
2026-05-05 10:12 54.77782 99.45436 35129 ft 480 kts 114°
2026-05-05 10:13 54.74808 99.55731 35130 ft 481 kts 114°
2026-05-05 10:13 54.71805 99.66093 35134 ft 482 kts 114°
2026-05-05 10:14 54.68788 99.76457 35142 ft 482 kts 115°
2026-05-05 10:14 54.65757 99.86811 35141 ft 483 kts 115°
2026-05-05 10:15 54.62712 99.97161 35131 ft 483 kts 115°
2026-05-05 10:15 54.59749 100.07195 35147 ft 482 kts 115°
2026-05-05 10:16 54.56692 100.17503 35137 ft 482 kts 115°
2026-05-05 10:16 54.53630 100.27786 35131 ft 482 kts 115°
2026-05-05 10:17 54.50560 100.38054 35137 ft 482 kts 115°
2026-05-05 10:17 54.47482 100.48297 35132 ft 482 kts 115°
2026-05-05 10:18 54.44401 100.58503 35139 ft 481 kts 115°
2026-05-05 10:18 54.41334 100.68619 35136 ft 480 kts 115°
2026-05-05 10:19 54.38246 100.78757 35136 ft 479 kts 115°
2026-05-05 10:19 54.35157 100.88869 35142 ft 478 kts 116°
2026-05-05 10:20 54.32064 100.98946 35136 ft 477 kts 116°
2026-05-05 10:20 54.29073 101.08660 35139 ft 476 kts 116°
2026-05-05 10:21 54.25975 101.18670 35139 ft 475 kts 116°
2026-05-05 10:21 54.22874 101.28646 35139 ft 474 kts 116°
2026-05-05 10:22 54.19765 101.38611 35139 ft 474 kts 116°
2026-05-05 10:22 54.16654 101.48538 35143 ft 474 kts 116°
2026-05-05 10:23 54.13554 101.58388 35149 ft 474 kts 116°
2026-05-05 10:23 54.10418 101.68320 35150 ft 475 kts 116°
2026-05-05 10:24 54.07272 101.78242 35149 ft 476 kts 116°
2026-05-05 10:24 54.04118 101.88147 35149 ft 477 kts 116°
2026-05-05 10:25 54.00949 101.98061 35147 ft 477 kts 116°
2026-05-05 10:25 53.97883 102.07641 35150 ft 478 kts 116°
2026-05-05 10:26 53.94700 102.17560 35150 ft 478 kts 116°
2026-05-05 10:26 53.91506 102.27477 35149 ft 478 kts 116°
2026-05-05 10:27 53.88305 102.37381 35148 ft 479 kts 116°
2026-05-05 10:27 53.85088 102.47287 34802 ft 483 kts 117°
2026-05-05 10:28 53.83456 102.52303 34270 ft 483 kts 117°
2026-05-05 10:28 53.81861 102.57200 33754 ft 479 kts 117°
2026-05-05 10:28 53.80251 102.62117 33232 ft 474 kts 117°
2026-05-05 10:28 53.78658 102.66972 32718 ft 471 kts 117°
2026-05-05 10:29 53.77070 102.71799 32198 ft 469 kts 117°
2026-05-05 10:29 53.75487 102.76601 31682 ft 466 kts 117°
2026-05-05 10:29 53.73916 102.81357 31166 ft 463 kts 117°
2026-05-05 10:29 53.72352 102.86100 30648 ft 460 kts 117°
2026-05-05 10:30 53.70793 102.90813 30126 ft 458 kts 116°
2026-05-05 10:30 53.69238 102.95496 29605 ft 455 kts 116°
2026-05-05 10:30 53.67709 103.00095 29094 ft 459 kts 116°
2026-05-05 10:30 53.66200 103.04631 28741 ft 463 kts 116°
2026-05-05 10:31 53.64619 103.09375 28504 ft 465 kts 117°
2026-05-05 10:31 53.63025 103.14146 28139 ft 467 kts 117°
2026-05-05 10:31 53.61426 103.18922 27766 ft 469 kts 117°
2026-05-05 10:31 53.59821 103.23700 27393 ft 469 kts 117°
2026-05-05 10:32 53.58232 103.28428 27022 ft 468 kts 117°
2026-05-05 10:32 53.56627 103.33195 26648 ft 468 kts 117°
2026-05-05 10:32 53.55022 103.37952 26274 ft 467 kts 117°
2026-05-05 10:32 53.53419 103.42697 25893 ft 466 kts 117°
2026-05-05 10:33 53.51821 103.47415 25526 ft 464 kts 117°
2026-05-05 10:33 53.50221 103.52131 25149 ft 462 kts 117°
2026-05-05 10:33 53.48627 103.56817 24781 ft 459 kts 117°
2026-05-05 10:33 53.47045 103.61461 24378 ft 457 kts 117°
2026-05-05 10:34 53.45476 103.66061 23835 ft 449 kts 117°
2026-05-05 10:34 53.43938 103.70564 23308 ft 440 kts 117°
2026-05-05 10:34 53.42430 103.74973 22780 ft 431 kts 117°
2026-05-05 10:34 53.40945 103.79301 22253 ft 424 kts 117°
2026-05-05 10:35 53.39451 103.83445 21727 ft 419 kts 123°
2026-05-05 10:35 53.37557 103.87142 21198 ft 416 kts 134°
2026-05-05 10:35 53.35341 103.90205 20675 ft 412 kts 143°
2026-05-05 10:35 53.32885 103.92638 20157 ft 407 kts 149°
2026-05-05 10:36 53.30426 103.94884 19619 ft 396 kts 150°
2026-05-05 10:36 53.28034 103.97062 19093 ft 387 kts 150°
2026-05-05 10:36 53.25699 103.99206 18562 ft 379 kts 150°
2026-05-05 10:36 53.23529 104.01215 18058 ft 372 kts 149°
2026-05-05 10:37 53.21287 104.03302 17531 ft 366 kts 149°
2026-05-05 10:37 53.19083 104.05356 17005 ft 360 kts 149°
2026-05-05 10:37 53.16909 104.07383 16487 ft 358 kts 150°
2026-05-05 10:37 53.14730 104.09413 15971 ft 359 kts 150°
2026-05-05 10:38 53.12547 104.11443 15451 ft 360 kts 150°
2026-05-05 10:38 53.10363 104.13470 14933 ft 360 kts 150°
2026-05-05 10:38 53.08164 104.15487 14407 ft 361 kts 150°
2026-05-05 10:38 53.05985 104.17463 13895 ft 360 kts 150°
2026-05-05 10:39 53.03796 104.19440 13392 ft 356 kts 151°
2026-05-05 10:39 53.01644 104.21383 12962 ft 349 kts 150°
2026-05-05 10:39 52.99542 104.23284 12551 ft 343 kts 151°
2026-05-05 10:39 52.97477 104.25145 12385 ft 334 kts 151°
2026-05-05 10:40 52.95438 104.26983 12165 ft 332 kts 151°
2026-05-05 10:40 52.93419 104.28800 11997 ft 330 kts 151°
2026-05-05 10:40 52.91403 104.30611 11811 ft 329 kts 151°
2026-05-05 10:40 52.89394 104.32422 11641 ft 328 kts 151°
2026-05-05 10:41 52.87391 104.34223 11453 ft 329 kts 151°
2026-05-05 10:41 52.85381 104.35988 11277 ft 327 kts 151°
2026-05-05 10:41 52.83399 104.37776 11092 ft 321 kts 151°
2026-05-05 10:41 52.81461 104.39528 10905 ft 314 kts 151°
2026-05-05 10:42 52.77706 104.42884 10520 ft 298 kts 151°
2026-05-05 10:42 52.75896 104.44512 10343 ft 295 kts 151°
2026-05-05 10:42 52.74092 104.46069 10170 ft 292 kts 155°
2026-05-05 10:43 52.72243 104.47407 9998 ft 287 kts 158°
2026-05-05 10:43 52.70420 104.48657 9830 ft 288 kts 158°
2026-05-05 10:43 52.68546 104.49847 9620 ft 291 kts 159°
2026-05-05 10:43 52.66671 104.51129 9459 ft 290 kts 158°
2026-05-05 10:44 52.64837 104.52466 9139 ft 291 kts 157°
2026-05-05 10:44 52.62971 104.53729 8803 ft 290 kts 158°
2026-05-05 10:44 52.61107 104.55031 8534 ft 289 kts 158°
2026-05-05 10:44 52.59257 104.56329 8306 ft 288 kts 158°
2026-05-05 10:45 52.57420 104.57608 8064 ft 287 kts 158°
2026-05-05 10:45 52.55589 104.58881 7822 ft 285 kts 158°
2026-05-05 10:45 52.53759 104.60151 7567 ft 285 kts 158°
2026-05-05 10:45 52.51934 104.61416 7322 ft 283 kts 158°
2026-05-05 10:46 52.50119 104.62672 7067 ft 284 kts 158°
2026-05-05 10:46 52.48304 104.63927 6827 ft 283 kts 158°
2026-05-05 10:46 52.46494 104.65177 6585 ft 282 kts 158°
2026-05-05 10:46 52.44687 104.66423 6346 ft 281 kts 158°
2026-05-05 10:47 52.42890 104.67663 6119 ft 280 kts 158°
2026-05-05 10:47 52.41125 104.68882 5887 ft 278 kts 158°
2026-05-05 10:47 52.39340 104.70111 5672 ft 277 kts 158°
2026-05-05 10:47 52.37580 104.71324 5463 ft 273 kts 158°
2026-05-05 10:48 52.35827 104.72531 5261 ft 271 kts 158°
2026-05-05 10:48 52.34110 104.73709 5203 ft 263 kts 158°
2026-05-05 10:48 52.32453 104.74844 5142 ft 254 kts 158°
2026-05-05 10:48 52.30843 104.75949 5074 ft 248 kts 158°
2026-05-05 10:49 52.29249 104.77045 4849 ft 247 kts 155°
2026-05-05 10:49 52.27612 104.77750 4629 ft 244 kts 187°
2026-05-05 10:49 52.26116 104.76785 4610 ft 221 kts 217°
2026-05-05 10:49 52.24975 104.75195 4524 ft 209 kts 229°
2026-05-05 10:50 52.23946 104.73581 4528 ft 204 kts 225°
2026-05-05 10:50 52.22963 104.71959 4508 ft 204 kts 227°
2026-05-05 10:50 52.21894 104.70477 4529 ft 201 kts 226°
2026-05-05 10:50 52.20881 104.68931 4518 ft 200 kts 226°
2026-05-05 10:51 52.20291 104.67811 4499 ft 194 kts 250°
2026-05-05 10:51 52.20046 104.65036 4518 ft 186 kts 290°
2026-05-05 10:51 52.20495 104.63134 4524 ft 183 kts 292°
2026-05-05 10:51 52.20860 104.61206 4506 ft 174 kts 294°
2026-05-05 10:52 52.21442 104.59534 4296 ft 167 kts 302°
2026-05-05 10:52 52.21888 104.57784 4060 ft 165 kts 295°
2026-05-05 10:52 52.22290 104.56069 3830 ft 160 kts 297°
2026-05-05 10:52 52.22617 104.54978 3675 ft 155 kts 298°
2026-05-05 10:53 52.23004 104.53368 3428 ft 151 kts 295°
2026-05-05 10:53 52.23454 104.51866 3211 ft 146 kts 300°
2026-05-05 10:53 52.23836 104.50334 3024 ft 149 kts 290°
2026-05-05 10:53 52.24268 104.48778 2782 ft 146 kts 300°
2026-05-05 10:54 52.24634 104.47250 2575 ft 147 kts 295°
2026-05-05 10:54 52.25058 104.45703 2360 ft 152 kts 297°
2026-05-05 10:54 52.25484 104.44115 2106 ft 153 kts 295°
2026-05-05 10:54 52.25899 104.42527 1880 ft 154 kts 295°
2026-05-05 10:55 52.26318 104.40939 1693 ft 150 kts 295°
2026-05-05 10:55 52.26707 104.39503 1636 ft 119 kts 294°
2026-05-05 10:55 52.26978 104.38481 1607 ft 77 kts 293°
2026-05-05 10:55 52.27137 104.37886 1592 ft 38 kts 294°
2026-05-05 10:56 52.27192 104.37676 1587 ft 10 kts 283°
2026-05-05 10:56 52.27161 104.37579 1587 ft 10 kts 230°
2026-05-05 10:56 52.27119 104.37493 1586 ft 10 kts 232°
2026-05-05 10:56 52.27080 104.37406 1585 ft 9 kts 233°
2026-05-05 10:57 52.27044 104.37321 1584 ft 9 kts 235°
2026-05-05 10:57 52.27009 104.37238 1584 ft 9 kts 234°
2026-05-05 10:57 52.26973 104.37158 1584 ft 9 kts 234°
2026-05-05 10:57 52.26938 104.37081 1584 ft 8 kts 240°
2026-05-05 10:58 52.26943 104.36991 1584 ft 8 kts 289°
2026-05-05 10:58 52.26962 104.36906 1584 ft 8 kts 289°
2026-05-05 10:58 52.26980 104.36824 1584 ft 8 kts 291°
2026-05-05 10:58 52.26998 104.36745 1584 ft 7 kts 290°
2026-05-05 10:59 52.27020 104.36650 1584 ft 12 kts 290°
2026-05-05 10:59 52.27049 104.36515 1584 ft 13 kts 288°
2026-05-05 10:59 52.27077 104.36381 1585 ft 12 kts 289°
2026-05-05 10:59 52.27094 104.36248 1585 ft 12 kts 266°
2026-05-05 11:00 52.27090 104.36125 1585 ft 7 kts 266°
2026-05-05 11:00 52.27089 104.36069 1585 ft 5 kts 283°
2026-05-05 11:00 52.27119 104.36053 1585 ft 5 kts
2026-05-05 11:00 52.27139 104.36052 1585 ft 0 kts 359°